^^
Datos históricos de la estación: Murcia-Puente Tocinos
 
Diario Informe para Enero 30, 2023 Unidades:  Métrico    Ingés   Ambas
Diario Semanal Mensual Anual
  Actual: Máxima: Mínima: Promedio:
Temperatura: 6.8 °C 7.7 °C 6.8 °C 7.2 °C
Punto de rocio: 3.2 °C 3.7 °C 3.2 °C 3.5 °C
Humedad: 78% 79% 75.5% 77%
Velocidad viento: 6km/h 6.4km/h 3.9km/h 5.2km/h
Racha viento: 9.5km/h 13km/h - -
VientoSur - - SSO
Presión: 1027.1 hPa 1027.2 hPa 1027.0 hPa -
Precipitación: 0.0 mm      
 
 
Tabla de datos para Enero 30, 2023
Hora Temperatura Punto de rocio Presión Viento Velocidad viento Racha viento Humedad Intensidad lluvia(por hora) Nubes
00:04 7.7 °C 3.7 °C 1027.1 hPa SO 4.2 km/h 8.4 km/h 76% 0.0 mm
00:09 7.7 °C 3.7 °C 1027.1 hPa SO 4.7 km/h 7.6 km/h 76% 0.0 mm
00:14 7.7 °C 3.7 °C 1027.1 hPa OSO 4.4 km/h 5.6 km/h 76% 0.0 mm
00:19 7.6 °C 3.6 °C 1027.1 hPa SO 3.9 km/h 7.4 km/h 76% 0.0 mm
00:24 7.6 °C 3.6 °C 1027.1 hPa SO 3.9 km/h 8.4 km/h 76% 0.0 mm
00:29 7.5 °C 3.6 °C 1027.1 hPa SO 3.9 km/h 7.6 km/h 76% 0.0 mm
00:34 7.4 °C 3.4 °C 1027.1 hPa SSO 4.3 km/h 8.4 km/h 75.5% 0.0 mm
00:39 7.3 °C 3.3 °C 1027.1 hPa SSO 5 km/h 9.5 km/h 76% 0.0 mm
00:44 7.1 °C 3.3 °C 1027.1 hPa SSO 5.3 km/h 9.3 km/h 76.9% 0.0 mm
00:49 7 °C 3.4 °C 1027.1 hPa SSO 5.8 km/h 7.6 km/h 77.6% 0.0 mm
00:54 7 °C 3.4 °C 1027.1 hPa SSO 5.5 km/h 9.3 km/h 78% 0.0 mm
00:59 7 °C 3.4 °C 1027.1 hPa SSO 5 km/h 8.4 km/h 78% 0.0 mm
01:04 6.9 °C 3.4 °C 1027.1 hPa SSO 5 km/h 8.4 km/h 78% 0.0 mm
01:09 6.9 °C 3.3 °C 1027.2 hPa SSO 5 km/h 10.3 km/h 78% 0.0 mm
01:14 6.9 °C 3.4 °C 1027.2 hPa SO 5.5 km/h 11.9 km/h 78.5% 0.0 mm
01:19 6.9 °C 3.5 °C 1027.2 hPa SO 6.4 km/h 13 km/h 78.9% 0.0 mm
01:24 6.8 °C 3.4 °C 1027.2 hPa SO 6.4 km/h 10 km/h 79% 0.0 mm
01:29 6.8 °C 3.4 °C 1027.0 hPa SSO 6.4 km/h 8.4 km/h 79% 0.0 mm
01:34 6.8 °C 3.4 °C 1027.0 hPa SSO 6.2 km/h 9.5 km/h 79% 0.0 mm
01:39 6.8 °C 3.4 °C 1027.1 hPa SSO 5.8 km/h 8.4 km/h 78.9% 0.0 mm
01:44 6.8 °C 3.2 °C 1027.1 hPa Sur 6 km/h 9.5 km/h 78% 0.0 mm
Murcia-Puente Tocinos, España
Compliments of Weather Underground - 1.75 mb

La estación de MeteoMurcia.com, publica sus datos en los siguientes proyectos:

Weather Underground PWS IMURCIAP2 Meteoclimatic www.awekas.at

Web Analytics

Clicky